Location: Bovenkerk
(52.2915°N, 4.8336°E)
Time: 03:22:05
(UTC+00:00)

Cosmos 1703 - Pass Details

Date: 09 April 2020
Orbit: 523 x 541 km, 82.5° (Epoch: 04 June)

Event Time Altitude Azimuth Distance (km) Brightness Sun altitude
Rises 18:57:01 0° 349° (N) 2,709 7.3 -4.9°
Reaches altitude 10° 18:59:10 10° 351° (N) 1,814 6.4 -5.2°
Maximum altitude 19:03:10 82° 79° (E) 554 3.3 -5.8°
Drops below altitude 10° 19:07:09 10° 168° (SSE) 1,804 5.6 -6.3°
Sets 19:09:18 0° 169° (S) 2,691 6.5 -6.6°
